CW9371 Weather Reports


time (UTC)temp
F
wind
direction
speed
knots
gust
knots
rain 1hr
in
rain 24hr
in
rain mn
in
humidity
%
barometer
mb
20260901100048 65 282 0.0 0.0 0.00 0.00 0.00 97 1010.8
20260901094546 66 282 0.0 0.0 0.00 0.00 0.00 97 1010.9
20260901093044 66 282 0.0 0.0 0.00 0.00 0.00 96 1010.7
20260901091542 67 282 0.0 0.0 0.00 0.00 0.00 96 1010.7
20260901090041 67 282 0.0 0.0 0.00 0.00 0.00 97 1010.7
20260901084540 67 282 0.0 0.0 0.00 0.00 0.00 97 1010.6
20260901083040 67 282 0.0 0.0 0.00 0.00 0.00 96 1010.5
20260901081543 67 282 0.0 0.0 0.00 0.00 0.00 96 1010.6
20260901080046 68 282 0.0 0.0 0.00 0.00 0.00 96 1010.4
20260901074544 68 282 0.0 0.0 0.00 0.00 0.00 96 1010.4
20260901073038 68 282 0.0 0.0 0.00 0.00 0.00 96 1010.5
20260901071533 68 282 0.0 0.0 0.00 0.00 0.00 96 1010.5
20260901070035 69 282 0.0 0.0 0.00 0.00 0.00 96 1010.7
20260901064532 69 282 0.0 0.0 0.00 0.00 0.00 95 1010.6
20260901063032 69 282 0.0 0.0 0.00 0.00 0.00 95 1010.5
20260901061529 69 282 0.0 0.0 0.00 0.00 0.00 95 1010.7
20260901060028 69 282 0.0 0.0 0.00 0.00 0.00 95 1010.7
20260901054528 69 282 0.0 0.0 0.00 0.00 0.00 95 1010.7
20260901053027 70 282 0.0 0.0 0.00 0.00 0.00 95 1010.6
20260901051533 70 282 0.0 0.0 0.00 0.00 0.00 94 1010.6
20260901050023 71 282 0.0 0.0 0.00 0.00 0.00 93 1010.5
20260901044523 72 282 0.0 0.0 0.00 0.00 0.00 92 1010.6
20260901043018 72 282 0.0 0.0 0.00 0.00 0.00 90 1010.7
20260901041538 73 282 0.0 0.0 0.00 0.00 0.00 89 1010.7
20260901040019 73 282 1.7 0.0 0.00 0.00 0.00 88 1010.8
20260901034513 73 283 1.7 0.0 0.00 0.00 0.49 88 1010.6
20260901033013 73 285 0.9 0.0 0.00 0.00 0.49 87 1010.5
20260901031513 73 278 1.7 0.0 0.00 0.00 0.49 88 1010.6
20260901030012 72 272 0.0 0.0 0.00 0.00 0.49 90 1010.6
20260901024512 72 284 0.0 0.0 0.00 0.00 0.49 92 1010.6
20260901023011 71 294 0.0 0.0 0.00 0.00 0.49 93 1010.8
20260901021516 71 294 0.0 0.0 0.00 0.00 0.49 94 1010.6
20260901020011 72 294 0.0 0.0 0.00 0.00 0.49 94 1010.5
20260901014525 72 295 0.0 0.0 0.00 0.00 0.49 92 1010.5
20260901013010 72 294 0.0 0.0 0.00 0.00 0.49 93 1010.5
20260901011512 72 294 0.0 0.0 0.00 0.00 0.49 92 1010.1
20260901010009 73 294 0.0 0.0 0.00 0.00 0.49 92 1010.0
20260901004508 74 294 0.0 0.0 0.00 0.00 0.49 91 1009.9
20260901003008 75 295 0.9 0.0 0.00 0.00 0.49 89 1009.9
20260901001507 75 285 0.9 0.0 0.00 0.00 0.49 84 1009.7
20260901000008 75 280 0.9 0.0 0.00 0.00 0.49 89 1009.7
20260831234508 76 280 1.7 0.0 0.00 0.00 0.49 86 1009.9
20260831233006 77 278 1.7 0.0 0.00 0.00 0.49 84 1009.5
20260831231506 78 258 0.0 0.0 0.00 0.00 0.49 80 1009.4
20260831230005 79 249 0.9 0.0 0.00 0.00 0.49 79 1009.4
20260831224504 80 234 1.7 0.0 0.00 0.00 0.49 73 1009.2
20260831223004 81 309 2.6 0.0 0.00 0.00 0.49 73 1009.3
20260831221504 81 281 2.6 0.0 0.00 0.00 0.49 73 1009.2
20260831220002 81 245 0.9 0.0 0.00 0.00 0.49 82 1009.2
20260831214607 80 275 0.0 0.0 0.00 0.00 0.49 78 1009.1
20260831214502 80 237 0.0 0.0 0.00 0.00 0.49 78 1009.1
20260831213058 80 234 0.0 0.0 0.00 0.00 0.49 80 1009.2
20260831211558 80 297 0.9 0.0 0.00 0.00 0.49 78 1009.2
20260831210057 80 246 1.7 0.0 0.00 0.00 0.49 76 1009.2
20260831204600 80 275 0.9 0.0 0.00 0.00 0.49 78 1009.2
20260831203052 79 278 0.9 0.0 0.00 0.00 0.49 81 1009.3
20260831201551 79 216 1.7 0.0 0.00 0.00 0.49 80 1009.6
20260831200049 79 257 1.7 0.0 0.00 0.00 0.49 79 1009.7
20260831194547 79 223 1.7 0.0 0.00 0.00 0.49 81 1010.0
20260831193044 78 190 2.6 0.0 0.00 0.00 0.49 80 1010.2
20260831191544 78 265 2.6 0.0 0.00 0.00 0.49 78 1010.3
20260831190043 79 198 2.6 0.0 0.00 0.00 0.49 79 1010.4
20260831184540 78 259 3.5 0.0 0.00 0.00 0.49 80 1010.5
20260831183038 77 341 4.3 0.0 0.00 0.00 0.49 80 1010.8
20260831181542 77 262 1.7 0.0 0.00 0.00 0.49 79 1010.7
20260831180036 76 245 2.6 0.0 0.00 0.00 0.49 80 1010.7
20260831174534 77 155 2.6 0.0 0.00 0.00 0.49 80 1010.8
20260831173032 76 284 2.6 0.0 0.00 0.00 0.49 84 1010.7
20260831171529 75 97 2.6 0.0 0.00 0.00 0.49 86 1010.8
20260831170030 74 120 2.6 0.0 0.00 0.00 0.49 88 1011.1
20260831164525 72 91 2.6 0.0 0.00 0.00 0.49 91 1011.3
20260831163021 71 128 2.6 0.0 0.00 0.00 0.49 92 1011.4
20260831161518 70 169 1.7 0.0 0.00 0.00 0.49 96 1011.5
20260831160013 69 186 1.7 0.0 0.00 0.00 0.49 96 1011.5
20260831154510 68 192 1.7 0.0 0.00 0.00 0.49 98 1012.1
20260831153007 67 171 1.7 0.0 0.00 0.00 0.49 98 1012.3
20260831151512 67 196 0.9 0.0 0.00 0.00 0.43 98 1013.4
20260831150007 67 150 0.9 0.0 0.00 0.00 0.40 98 1013.2
20260831144505 67 150 0.9 0.0 0.00 0.00 0.38 98 1013.6
20260831143005 67 256 0.9 0.0 0.00 0.00 0.35 98 1013.4
20260831141504 67 75 0.9 0.0 0.00 0.00 0.31 98 1013.5
20260831140006 67 113 0.9 0.0 0.00 0.00 0.28 98 1013.3
20260831134503 67 155 0.9 0.0 0.00 0.00 0.28 98 1014.0
20260831133001 67 253 0.9 0.0 0.00 0.00 0.25 98 1014.1
20260831131501 67 256 0.9 0.0 0.00 0.00 0.23 98 1014.2
20260831130001 67 248 1.7 0.0 0.00 0.00 0.20 98 1014.2
20260831124605 67 270 1.7 0.0 0.00 0.00 0.17 98 1013.7
20260831123059 67 295 0.9 0.0 0.00 0.00 0.15 98 1013.1
20260831121608 67 359 0.9 0.0 0.00 0.00 0.14 98 1012.5
20260831120057 67 108 1.7 0.0 0.00 0.00 0.14 98 1011.9
20260831114555 67 77 0.9 0.0 0.00 0.00 0.14 98 1012.2
20260831113055 66 85 1.7 0.0 0.00 0.00 0.14 98 1012.1
20260831111557 67 100 1.7 0.0 0.00 0.00 0.14 98 1012.1
20260831110100 66 101 1.7 0.0 0.00 0.00 0.14 98 1012.3
20260831104552 66 107 0.9 0.0 0.00 0.00 0.14 98 1012.3
20260831103053 66 1 0.0 0.0 0.00 0.00 0.12 98 1013.0